User: anonymous   Login
Location: Nairn
(57.5833°N, 3.8667°W)
Time: 11:19:13
(UTC+00:00)
Language:

Cosmos 1634 Rocket - Orbit

View from above orbital plane
View from above orbital plane
View from above satellite
View from above satellite

Ground track
Ground track

The orbit data is extracted from the following two-line orbital elements,

1 15598U 85022B   20293.73298553 -.00000063 +00000-0 -79604-4 0  9994
2 15598 082.9331 279.8503 0020845 297.5221 234.3106 13.76579355788392
Epoch (UTC): 19 October 2020 17:35:29
Eccentricity: 0.0020845
inclination: 82.9331°
perigee height: 961 km
apogee height: 991 km
right ascension of ascending node: 279.8503°
argument of perigee: 297.5221°
revolutions per day: 13.76579355
mean anomaly at epoch: 234.3106°
orbit number at epoch: 78839

The dashed part of the orbit path shows where the satellite is in the earth's shadow,  

DLR